Regional Weather Roundup
Issued by NWS

Home | Current Version | Previous Version | Text Only | Print | Product List | Glossary Off
Versions: 1 2 3 4 5 6 7 8 9 10 11 12 13 14 15 16 17 18 19 20 21 22 23 24 25 26 27 28 29 30 31 32 33 34 35 36 37 38 39 40 41 42 43 44 45 46 47 48 49 50

000
ASUS43 KLMK 302110
RWRKY
KENTUCKY REGIONAL WEATHER ROUNDUP
NATIONAL WEATHER SERVICE LOUISVILLE KY
400 PM EST FRI JAN 30 2015

NOTE "FAIR" INDICATES FEW OR NO CLOUDS BELOW 12,000 FEET
WITH NO SIGNIFICANT WEATHER AND/OR OBSTRUCTIONS TO VISIBILITY.

KYZ001>023-026-027-061>063-070>075-302200-
WESTERN AND SOUTH CENTRAL KENTUCKY

CITY           SKY/WX    TMP DP  RH WIND       PRES   REMARKS
PADUCAH        SUNNY     45  20  36 VRB5      30.45F
HENDERSON      SUNNY     39  21  48 N5        30.46S
OWENSBORO      SUNNY     40  21  46 NW7       30.46S
HOPKINSVILLE   SUNNY     42  20  41 W8        30.43F
BOWLING GREEN  SUNNY     44  19  36 NE6       30.44R
GLASGOW        SUNNY     42  21  42 N8        30.42R
$$

KYZ024-025-028>034-038-045-046-053-302200-
NORTH CENTRAL KENTUCKY

CITY           SKY/WX    TMP DP  RH WIND       PRES   REMARKS
LOUISVILLE/SDF SUNNY     40  16  37 VRB6      30.44S
LOUISVILLE/LOU SUNNY     39  16  39 N7        30.44S WCI  34
FORT KNOX      SUNNY     38  17  43 N7        30.41S WCI  32
$$

KYZ035>037-039>044-047>052-055>060-089>105-302200-
NORTHEAST KENTUCKY

CITY           SKY/WX    TMP DP  RH WIND       PRES   REMARKS
LEXINGTON      SUNNY     35  15  44 W7        30.41S WCI  29
COVINGTON      MOSUNNY   31  14  49 NW9       30.43S WCI  23
FRANKFORT      SUNNY     36  12  37 CALM      30.41S
$$

KYZ054-064>069-076>088-106>120-302200-
SOUTHEAST KENTUCKY

CITY           SKY/WX    TMP DP  RH WIND       PRES   REMARKS
JACKSON        SUNNY     34  13  41 NW8       30.36R WCI  27
LONDON         SUNNY     38  15  39 NW9       30.37R WCI  31
SOMERSET       SUNNY     37  18  44 N7        30.41R WCI  32
MIDDLESBORO    MOSUNNY   39  18  43 N9G21     30.35S WCI  33
MONTICELLO     PTCLDY    41  20  43 NW12      30.42R
$$




USA.gov is the U.S. government's official web portal to all federal, state and local government web resources and services.